This is the latest recevied weather packets stored in our database for station/object EA7URS-13. If no packets are shown the sender has not sent any weather packets the latest 10 day(s).
| Time | Temp. | Humidity | Pressure | Rain* | Wind** | Luminosity | Snow |
|---|---|---|---|---|---|---|---|
| 1787932949 | 31.11° C | 23% | 1011.2 hPa | 0 mm | - | 284 W/m² | - |
| 1787932648 | 31.11° C | 23% | 1011.2 hPa | 0 mm | - | 284 W/m² | - |
| 1787932347 | 30.56° C | 24% | 1011.2 hPa | 0 mm | - | 338 W/m² | - |
| 1787932046 | 30.56° C | 24% | 1011.2 hPa | 0 mm | - | 338 W/m² | - |
| 1787931745 | 30.56° C | 23% | 1011.5 hPa | 0 mm | - | 367 W/m² | - |
| 1787931444 | 30.56° C | 23% | 1011.5 hPa | 0 mm | - | 367 W/m² | - |
| 1787931143 | 30° C | 24% | 1011.3 hPa | 0 mm | - | 392 W/m² | - |
| 1787930842 | 30° C | 24% | 1011.3 hPa | 0 mm | - | 392 W/m² | - |
| 1787930544 | 30.56° C | 23% | 1011.7 hPa | 0 mm | - | 422 W/m² | - |
| 1787930240 | 30.56° C | 23% | 1011.7 hPa | 0 mm | - | 422 W/m² | - |
| 1787929939 | 30.56° C | 24% | 1011.6 hPa | 0 mm | - | 448 W/m² | - |
| 1787929638 | 30.56° C | 24% | 1011.6 hPa | 0 mm | - | 448 W/m² | - |
| 1787929336 | 30° C | 24% | 1011.7 hPa | 0 mm | - | 472 W/m² | - |
| 1787929035 | 30° C | 24% | 1011.7 hPa | 0 mm | - | 472 W/m² | - |
| 1787928734 | 30° C | 26% | 1012 hPa | 0 mm | - | 500 W/m² | - |
| 1787928432 | 30° C | 26% | 1012 hPa | 0 mm | - | 500 W/m² | - |
| 1787928131 | 30° C | 25% | 1012 hPa | 0 mm | - | 521 W/m² | - |
| 1787927830 | 30° C | 25% | 1012 hPa | 0 mm | - | 521 W/m² | - |
| 1787927529 | 29.44° C | 26% | 1012.2 hPa | 0 mm | - | 548 W/m² | - |
| 1787927228 | 29.44° C | 26% | 1012.2 hPa | 0 mm | - | 548 W/m² | - |
| 1787926927 | 29.44° C | 26% | 1012.1 hPa | 0 mm | - | 571 W/m² | - |
| 1787926626 | 29.44° C | 26% | 1012.1 hPa | 0 mm | - | 571 W/m² | - |
| 1787926325 | 28.33° C | 27% | 1012.4 hPa | 0 mm | - | 590 W/m² | - |
| 1787926024 | 28.33° C | 27% | 1012.4 hPa | 0 mm | - | 590 W/m² | - |
| 1787925722 | 28.33° C | 28% | 1012.5 hPa | 0 mm | - | 612 W/m² | - |
* Rain latest hour (hover to see other rain measurements)
** Current wind speed in m/s (hover to see current wind gust speed)